Terug naar catalogus

STARLINK-3388

ActiefCommunicatieVLEO
NORAD 51131·PAYLOAD·🇺🇸 United States

Gelanceerd Jan 19, 2022 vanaf Cape Canaveral Space Force Station

Loading…

Volgende Passages (komende 24 uur)

TLE

VersSource: CelesTrak SupGP

Epoch: Sep 14, 2026, 22:08 UTC

1 51131C 22005AD  26257.92270833 -.00043934  00000+0 -14129-2 0  2576
2 51131  53.1573 155.7602 0001321  92.1117 239.1236 15.31720458    14

Volg STARLINK-3388 in realtime met AllMySat

Download on the App Store